Regional Weather Roundup
Issued by NWS

Home | Current Version | Previous Version | Graphics & Text | Print | Product List | Glossary On
Versions: 1 2 3 4 5 6 7 8 9 10 11 12 13 14 15 16 17 18 19 20 21 22 23 24 25 26 27 28 29 30 31 32 33 34 35 36 37 38 39 40 41 42 43 44 45 46 47 48 49 50
000
ASUS43 KMPX 311701
RWRMN
WEATHER ROUNDUP FOR MINNESOTA
NATIONAL WEATHER SERVICE TWIN CITIES/CHANHASSEN MN
1200 PM CDT WED AUG 31 2016


NOTE: "FAIR" INDICATES FEW OR NO CLOUDS BELOW 12,000 FEET WITH NO
SIGNIFICANT WEATHER AND/OR OBSTRUCTIONS TO VISIBILITY. N/A MEANS
CURRENT SKY AND/OR WEATHER CONDITIONS ARE NOT AVAILABLE.

MNZ060>063-068>070-311800-
   Twin Cities Metro

CITY           SKY/WX    TMP DP  RH WIND       PRES   REMARKS
TWIN CITIES    MOSUNNY   76  51  41 N9        30.21F
ST PAUL        SUNNY     73  52  47 N9        30.21F
CRYSTAL        SUNNY     75  49  39 N8        30.20F
BLAINE         SUNNY     73  54  49 N7        30.21F
LAKEVILLE      SUNNY     72  55  56 N5        30.21F
EDEN PRAIRIE   SUNNY     76  53  44 N7        30.20F
LAKEVILLE      SUNNY     72  55  56 N5        30.21F
SOUTH ST PAUL  SUNNY     74  49  40 N6        30.20F
LAKE ELMO      FAIR      72  55  56 N5        30.22F
$$
MNZ001>005-007-008-013>017-022>024-027-028-311800-
   Northwest Minnesota

CITY           SKY/WX    TMP DP  RH WIND       PRES   REMARKS
BEMIDJI        SUNNY     67  52  59 N8        30.26F
HALLOCK        SUNNY     70  54  56 N6        30.28F
ROSEAU         SUNNY     66  55  68 NE3       30.28F
WARROAD        CLOUDY    66  57  72 NE5       30.29S
THIEF RVR FALL SUNNY     67  52  58 N5        30.29S
CROOKSTON      SUNNY     70  54  56 NE6       30.27F
FOSSTON        SUNNY     70  54  56 N8        30.28S
DETROIT LAKES  SUNNY     72  52  49 NW7       30.27F
MOORHEAD       SUNNY     73  50  43 N5        30.25F
PARK RAPIDS    SUNNY     71  49  45 VRB6      30.25S
MAHNOMEN         N/A     69  52  54 N3        30.26F
$$
MNZ006-009>011-018-025>026-311800-
   North Central Minnesota

CITY           SKY/WX    TMP DP  RH WIND       PRES   REMARKS
BAUDETTE       PTSUNNY   67  55  65 N7        30.27S
FLAG ISLAND    MOSUNNY   63  55  77 CALM      30.27S HAZE
INTL FALLS     PTSUNNY   66  54  65 N7        30.25S
WASKISH        PTSUNNY   66  55  68 NW6       30.27S
BIG FORK       MOSUNNY   70  54  56 N6        30.25S
LONGVILLE      SUNNY     70  52  52 N8        30.24F
GRAND RAPIDS   SUNNY     68  52  56 N10       30.25F
ORR            PTSUNNY   66  52  59 CALM      30.22S
COOK           PTSUNNY   64  54  68 N5        30.24S
WALKER         FAIR      68  52  57 NW9       30.25F
$$
MNZ012-019>021-037-311800-
   Northeast Minnesota

CITY           SKY/WX    TMP DP  RH WIND       PRES   REMARKS
DULUTH         MOSUNNY   71  51  49 NW8       30.21F
ELY            PTSUNNY   64  54  68 CALM      30.22S
HIBBING          N/A     67  53  61 N12       30.23F
EVELETH        MOSUNNY   69  50  51 NW6       30.24S
DULUTH HARBOR  SUNNY     73  57  56 E3        30.20S
TWO HARBORS    SUNNY     73  55  53 N5        30.18F
SILVER BAY     PTSUNNY   72  52  49 N6        30.18F
GRAND MARAIS     N/A     70  42  36 VRB6      30.17F
G MARAIS ARPRT CLOUDY    63  50  63 NW6       30.22S
$$
MNZ029>031-032-039>041-046>048-054>057-064-311800-
   West Central Minnesota

CITY           SKY/WX    TMP DP  RH WIND       PRES   REMARKS
FERGUS FALLS   SUNNY     73  55  53 N3        30.26F
WHEATON        SUNNY     75  57  53 CALM      30.26S
MORRIS         SUNNY     77  55  47 NW5       30.24S
ALEXANDRIA     SUNNY     75  32  20 MISG      30.26S
ELBOW LAKE     FAIR      73  54  52 NW5       30.25F
WADENA         SUNNY     72  55  56 NW9       30.25S
GLENWOOD       SUNNY     73  57  56 W7        30.25S
APPLETON       SUNNY     75  55  50 CALM      30.23S
BENSON         SUNNY     77  54  44 CALM      30.24S
ORTONVILLE     SUNNY     75  55  50 CALM      30.24S
MADISON        SUNNY     73  57  56 NW5       30.23F
WILLMAR        FAIR      75  57  53 N6        30.25S
$$
MNZ033>034-036-042>043-049>051-058-059-311800-
   Central Minnesota

CITY           SKY/WX    TMP DP  RH WIND       PRES   REMARKS
ST CLOUD       SUNNY     73  53  49 N7        30.23S
SAUK CENTRE    FAIR      72  53  51 NW8       30.24S
PAYNESVILLE    SUNNY     75  53  46 NW6       30.24S
AITKIN         SUNNY     73  48  40 W3        30.22S
PINE RIVER     SUNNY     70  55  60 N7        30.27S
BRAINERD       SUNNY     70  51  51 NW7       30.24S
STAPLES        SUNNY     72  52  49 N5        30.24S
LONG PRAIRIE   FAIR      72  52  49 W6        30.24F
LITTLE FALLS   SUNNY     72  52  49 N3        30.23F
LITCHFIELD     SUNNY     73  57  56 N5        30.24S
BUFFALO        SUNNY     73  52  48 N5        30.23S
MAPLE LAKE     SUNNY     73  56  56 N3        30.23F
HUTCHINSON     SUNNY     74  57  55 NW5       30.24S
$$
MNZ037-044-045-052-053-311800-
   East Central Minnesota

CITY           SKY/WX    TMP DP  RH WIND       PRES   REMARKS
PRINCETON      SUNNY     73  55  53 N3        30.22F
MORA           SUNNY     70  50  49 NW5       30.23F
CAMBRIDGE      SUNNY     73  54  49 NW7       30.20F
RUSH CITY      SUNNY     72  52  49 N5        30.22F
MOOSE LAKE     SUNNY     70  48  46 NW10      30.20S
HINCKLEY       FAIR      72  52  49 N8        30.22S
CLOQUET        SUNNY     70  46  43 N9        30.22S
MCGREGOR       SUNNY     72  50  46 NW9       30.23S
$$
MNZ071>073-080-081-089-090-097-098-311800-
   Southwest Minnesota

CITY           SKY/WX    TMP DP  RH WIND       PRES   REMARKS
MONTEVIDEO     SUNNY     77  61  57 CALM      30.25S
GRANITE FALLS  MOSUNNY   75  58  54 SW3       30.25S
CANBY          SUNNY     75  58  55 CALM      30.25F
MARSHALL       MOSUNNY   72  61  68 N3        30.25S
REDWOOD FALLS  SUNNY     75  54  47 VRB3      30.23S
OLIVIA         SUNNY     73  57  56 NW5       30.23S
WINDOM         MOSUNNY   73  55  53 N3        30.24S
WORTHINGTON    CLOUDY    73  58  59 VRB3      30.25F
JACKSON        MOSUNNY   72  54  53 VRB5      30.25S
TRACY          MOSUNNY   74  59  60 NE3       30.25S
SLAYTON        MOSUNNY   72  59  64 N3        30.26S
$$
MNZ065>067-074>077-082>085-091>093-311800-
   South Central Minnesota

CITY           SKY/WX    TMP DP  RH WIND       PRES   REMARKS
NEW ULM          N/A     73  54  49 N5        30.22F
ST JAMES       SUNNY     73  57  56 NW6       30.24S
FAIRMONT       CLOUDY    73  57  57 N6        30.23S
GLENCOE        SUNNY     74  60  61 NW6       30.22S
FARIBAULT      SUNNY     73  55  53 NW8       30.21F
OWATONNA       SUNNY     73  52  46 N7        30.21F
WASECA         SUNNY     72  55  56 N7        30.23S
ALBERT LEA     SUNNY     73  54  49 N8        30.21F
$$
MNZ078>079-086>088-094>096-311800-
   Southeast Minnesota

CITY           SKY/WX    TMP DP  RH WIND       PRES   REMARKS
ROCHESTER      SUNNY     74  53  48 N12       30.21F
RED WING       SUNNY     75  48  38 N7        30.18F
STANTON        SUNNY     73  54  49 N7        30.20S
DODGE CENTER   SUNNY     73  54  49 NW10      30.21F
WINONA         SUNNY     73  54  49 N8G17     30.19S
AUSTIN         SUNNY     73  54  49 N8        30.20F
PRESTON        SUNNY     72  52  49 N10       30.20S
$$
ABBREVIATIONS USED IN REMARKS
   TC - TEMPERATURES IN CELSIUS
  WCI - WIND CHILL INDEX
   HX - HEAT INDEX
  VSB - VISIBILITY
$$



USA.gov is the U.S. government's official web portal to all federal, state and local government web resources and services.